Regional Weather Roundup
Issued by NWS

Home | Current Version | Previous Version | Text Only | Print | Product List | Glossary Off
Versions: 1 2 3 4 5 6 7 8 9 10 11 12 13 14 15 16 17 18 19 20 21 22 23 24 25 26 27 28 29 30 31 32 33 34 35 36 37 38 39 40 41 42 43 44 45 46 47 48 49 50

000
ASUS43 KOAX 251910
RWRNE

WEATHER ROUNDUP FOR NEBRASKA
NATIONAL WEATHER SERVICE OMAHA NE
200 PM CDT TUE APR 25 2017

NOTES: SATELLITE DATA IS BEING USED TO AUGMENT CLOUD COVER ABOVE
       12000 FEET.
       "FAIR" INDICATES FEW OR NO CLOUDS BELOW 12,000 FEET WITH NO
       SIGNIFICANT WEATHER AND/OR OBSTRUCTIONS TO VISIBILITY.

  * THESE STATIONS DO NOT REPORT WEATHER SUCH AS RAIN...SNOW OR FOG.

NEZ001>004-019>022-054>056-252000-
NEBRASKA PANHANDLE

CITY           SKY/WX    TMP DP  RH WIND       PRES   REMARKS
SCOTTSBLUFF    CLOUDY    46  38  73 NE21G31   29.62R
ALLIANCE       CLOUDY    37  35  92 NE21      29.64R WCI  26
CHADRON        CLOUDY    34  30  85 NE17      29.72S WCI  23
KIMBALL        CLOUDY    54  35  47 NW16G25   29.58R
SIDNEY         CLOUDY    57  37  47 N12       29.56F
$$

NEZ057>060-069>072-079>082-252000-
SOUTHWEST NEBRASKA

CITY           SKY/WX    TMP DP  RH WIND       PRES   REMARKS
NORTH PLATTE   CLOUDY    46  40  79 N13       29.60S
IMPERIAL       CLOUDY    49  43  80 N13       29.59S
LEXINGTON      CLOUDY    43  38  84 N9        29.59S
MCCOOK         CLOUDY    50  43  77 N12       29.57R
OGALLALA       CLOUDY    49  41  75 NE9       29.61S
$$

NEZ005>010-023>029-035>040-094-252000-
NORTH CENTRAL NEBRASKA

CITY           SKY/WX    TMP DP  RH WIND       PRES   REMARKS
VALENTINE      CLOUDY    37  32  82 N14       29.69S WCI  28
AINSWORTH      FLURRIES  34  34 100 N18       29.67S WCI  23
BROKEN BOW     CLOUDY    42  41  96 N16G23    29.59S
O`NEILL        CLOUDY    37  35  90 N20G26    29.62F WCI  27
ORD            CLOUDY    40  36  86 N17       29.59S WCI  31
THEDFORD       LGT RAIN  39  37  91 N16       29.63F WCI  31
$$

NEZ041-046>049-061>064-073>077-083>087-252000-
SOUTH CENTRAL NEBRASKA

CITY           SKY/WX    TMP DP  RH WIND       PRES   REMARKS
GRAND ISLAND   CLOUDY    42  39  89 N16       29.58S
AURORA         CLOUDY    43  39  85 N20G26    29.55S
HASTINGS       CLOUDY    45  39  79 N18       29.55F
HEBRON         CLOUDY    50  41  72 N15G21    29.51S
HOLDREGE       CLOUDY    44  40  87 N14       29.57R
KEARNEY *      CLOUDY    45  37  76 N16       29.57S
YORK           CLOUDY    45  39  81 N18G26    29.55R
$$

NEZ011>018-030>034-042>045-252000-
NORTHEAST NEBRASKA

CITY           SKY/WX    TMP DP  RH WIND       PRES   REMARKS
NORFOLK        LGT RAIN  40  37  89 N15       29.55F WCI  32
ALBION         CLOUDY    40  37  87 N10       29.59R WCI  34
BLAIR          CLOUDY    49  43  80 N13       29.49S
FREMONT        CLOUDY    47  41  79 N10G17    29.53R
TEKAMAH        CLOUDY    49  42  77 N20       29.51F
WAYNE          CLOUDY    42  42  99 N10       29.57R
$$

NEZ050>053-065>068-078-088>093-252000-
SOUTHEAST NEBRASKA

CITY           SKY/WX    TMP DP  RH WIND       PRES   REMARKS
LINCOLN        CLOUDY    50  42  74 N20       29.52S
OMAHA EPPLEY   CLOUDY    52  43  71 N15G23    29.49S
BEATRICE       CLOUDY    54  44  70 N18       29.49R
FALLS CITY     CLOUDY    66  54  65 NW3       29.41S
NEBRASKA CITY  CLOUDY    58  42  55 N16       29.45S
PLATTSMOUTH    CLOUDY    55  43  65 NW12      29.47S
$$

NEZ044-045-051>053-067-252000-
OMAHA AREA

CITY           SKY/WX    TMP DP  RH WIND       PRES   REMARKS
OMAHA EPPLEY   CLOUDY    52  43  71 N15G23    29.49S
BLAIR          CLOUDY    49  43  80 N13       29.49S
FREMONT        CLOUDY    47  41  79 N10G17    29.53R
MILLARD        CLOUDY    52  45  76 N9        29.50F
OFFUTT AFB     CLOUDY    54  46  74 N14G21    29.48S
PLATTSMOUTH    CLOUDY    55  43  65 NW12      29.47S
WAHOO          CLOUDY    49  41  74 N20       29.51R
$$



USA.gov is the U.S. government's official web portal to all federal, state and local government web resources and services.